Temp
12 12 12 11 11 13 16 17 17 16 16 16 15 15 16 16 16 16 14 14 13 13 13 12 12 12 11 11 11 10 10 9 9 9 9 9 9 9 9 9 9 9 9 9 9 9 8 8 8
12 12 12 10 12 16 18 17 16 16 16 15 15 15 15 15 15 14 14 13 13 13 13 12 12 11 11 11 11 10 10 9 9 9 8 8 8 8 9 9 9 8 8 8 8 8 8 8 8
12 11 9 12 13 16 18 15 17 16 15 15 15 15 15 15 14 13 13 13 13 13 12 12 12 11 11 11 10 10 9 9 9 9 9 8 8 8 8 8 8 8 8 8 8 8 7 7 8
11 11 11 12 15 16 17 17 16 16 15 15 15 15 15 14 13 13 13 13 13 13 12 12 12 11 11 11 10 10 9 9 9 9 9 8 8 8 8 8 8 7 7 7 6 7 7 7 6
11 10 12 14 15 16 16 16 16 15 15 15 15 15 15 13 13 13 13 13 13 13 12 12 12 11 11 11 10 10 9 9 9 9 9 8 8 8 8 8 7 7 7 6 6 6 6 6 6
9 10 12 15 16 16 16 15 15 15 15 15 15 15 14 14 13 12 13 12 12 11 12 12 12 11 11 11 10 10 9 9 9 9 9 8 8 8 8 8 7 7 7 6 6 6 6 6 5
9 11 13 14 15 16 16 15 15 15 15 15 15 14 14 14 13 12 11 11 11 10 11 12 12 11 11 10 10 10 9 9 9 9 9 8 8 8 8 8 7 7 7 6 6 6 6 6 5
9 11 12 14 14 15 16 15 14 14 15 15 14 13 14 14 12 13 12 12 11 11 10 11 12 11 10 10 10 10 9 9 9 9 9 8 8 8 8 8 7 6 6 6 6 6 6 6 6
9 10 12 13 14 15 15 15 15 14 13 13 13 13 13 13 12 12 12 12 12 11 10 9 10 11 10 10 10 10 9 9 9 9 8 8 8 8 7 8 7 7 6 6 6 6 6 6 6
9 10 12 13 14 14 15 15 15 14 14 13 13 13 13 13 13 12 12 12 12 12 11 10 11 11 11 10 10 10 9 9 9 8 8 8 8 7 7 7 7 6 6 6 6 6 6 6 5
10 10 11 13 13 14 14 14 14 14 14 13 13 13 13 12 12 12 12 12 12 12 11 11 10 11 11 10 10 10 10 9 8 8 8 8 7 7 7 7 7 7 6 5 6 5 5 5 5
10 11 11 12 12 13 13 13 14 13 13 13 13 12 12 12 12 12 12 12 12 12 11 11 11 12 11 10 10 10 10 9 8 8 8 8 7 7 7 7 6 5 5 4 4 4 5 4 4
11 11 11 12 12 12 13 13 13 13 13 12 12 12 11 12 12 12 12 12 12 11 11 10 11 12 11 11 10 10 10 9 9 8 8 8 7 7 6 6 6 5 4 4 4 4 4 4 4
11 11 11 11 11 12 12 12 12 12 12 12 12 12 12 12 12 12 12 12 11 11 11 11 11 12 12 11 10 10 9 9 9 8 8 8 7 6 6 6 6 5 4 4 4 4 4 3 3
10 10 11 11 11 11 11 11 12 12 12 12 12 12 12 12 12 12 12 12 11 11 11 12 11 12 12 11 11 10 10 9 9 8 8 7 7 6 6 6 5 5 5 4 3 3 3 3 3
9 10 10 11 11 11 11 11 11 12 12 12 13 13 13 12 12 12 11 12 12 12 11 12 12 12 12 11 11 11 10 9 9 8 8 7 7 6 6 6 5 5 5 4 4 3 3 3 3
9 10 11 11 12 12 12 11 12 12 12 12 12 12 12 12 12 12 11 11 12 12 12 12 12 12 12 11 11 11 10 9 9 8 8 7 6 6 6 5 5 5 4 4 4 4 3 3 3
9 10 10 11 12 12 12 12 13 13 12 12 12 12 12 12 11 11 11 11 12 12 12 12 12 12 12 12 11 11 10 10 9 8 7 7 6 6 6 5 5 4 4 4 3 3 3 3 2
10 11 11 12 12 12 12 12 12 13 12 11 12 12 12 11 11 11 11 11 11 12 12 12 12 12 12 12 11 11 10 10 9 8 7 6 6 6 5 5 4 4 4 3 3 2 3 2 2
8 9 10 11 12 12 12 11 11 11 11 11 11 11 11 11 11 11 11 11 12 13 13 12 12 12 12 12 11 11 10 9 8 7 7 6 6 5 5 4 4 4 3 3 3 2 2 1 1
9 9 10 10 11 11 11 11 11 11 10 10 11 11 11 11 11 11 11 11 12 13 13 12 12 12 12 12 11 10 9 8 8 7 6 6 6 5 4 4 3 3 3 2 2 2 1 1 1
9 9 9 10 10 11 11 13 12 12 11 11 11 11 11 11 11 11 11 11 12 13 13 12 12 12 12 11 10 10 8 7 7 6 5 5 5 4 4 3 3 2 2 2 2 2 2 1 1
9 10 10 10 10 10 10 11 11 12 12 12 12 12 12 11 11 11 12 12 12 13 12 12 12 12 12 11 10 8 8 7 6 6 6 5 4 4 3 3 3 2 2 2 2 2 2 1 1
9 9 10 10 10 11 10 11 11 12 13 13 12 12 12 12 12 12 11 12 12 12 12 12 12 11 11 10 9 8 7 6 6 6 5 5 4 4 3 3 3 2 2 2 2 2 2 2 2
9 9 10 10 11 12 11 11 12 12 13 12 12 12 12 11 11 12 12 12 13 12 12 12 11 11 10 9 8 8 7 6 6 5 4 4 4 3 3 3 3 2 2 2 2 2 2 2 2
9 9 11 10 12 13 12 12 13 13 12 12 12 12 12 11 12 12 12 13 12 12 11 11 11 10 9 8 8 7 7 6 5 5 4 4 4 3 3 3 2 2 2 2 2 2 2 2 2
9 9 10 12 12 14 14 14 13 13 13 12 12 12 12 12 12 12 12 12 12 12 11 10 10 9 8 8 7 7 6 5 5 4 4 4 4 3 3 3 2 2 2 2 2 2 2 2 2
8 9 10 11 12 13 14 14 14 13 13 13 13 13 11 12 12 12 12 12 11 11 10 10 9 8 8 8 7 6 5 5 4 4 3 3 3 3 3 2 2 3 3 3 3 3 3 2 2
8 10 10 11 12 14 13 14 13 13 12 13 13 13 12 12 12 12 12 11 11 10 9 9 8 8 8 7 6 5 5 4 4 4 4 4 4 3 3 2 3 3 3 3 3 3 3 2 2
9 10 9 11 12 12 14 14 13 12 12 12 13 12 12 12 12 12 11 11 10 10 9 8 8 8 7 6 4 5 5 4 4 4 4 4 3 3 3 3 3 3 3 3 3 3 3 2 2
Height
3173 3175 3176 3178 3186 3180 3173 3171 3170 3172 3172 3172 3172 3172 3172 3171 3172 3174 3169 3169 3168 3166 3166 3165 3163 3162 3161 3159 3158 3156 3154 3152 3150 3149 3148 3146 3145 3143 3141 3138 3138 3138 3138 3139 3139 3139 3139 3138 3139
3173 3175 3177 3179 3181 3173 3163 3166 3168 3169 3171 3172 3171 3171 3170 3170 3170 3171 3170 3167 3166 3164 3164 3163 3162 3161 3159 3158 3156 3154 3153 3152 3150 3149 3147 3146 3144 3142 3140 3137 3135 3134 3134 3134 3135 3135 3135 3135 3135
3172 3175 3179 3179 3176 3169 3162 3165 3166 3167 3171 3171 3171 3170 3169 3170 3168 3168 3166 3165 3164 3162 3161 3161 3160 3159 3158 3157 3155 3154 3153 3151 3149 3147 3146 3145 3143 3141 3138 3136 3133 3132 3130 3130 3131 3131 3131 3131 3132
3172 3175 3176 3174 3169 3167 3165 3165 3165 3168 3169 3169 3170 3169 3169 3165 3166 3164 3162 3162 3161 3159 3159 3158 3157 3156 3156 3155 3154 3152 3151 3150 3148 3146 3145 3144 3141 3138 3136 3134 3132 3129 3128 3127 3126 3127 3127 3128 3128
3171 3176 3175 3170 3168 3166 3164 3165 3165 3166 3168 3168 3168 3168 3168 3161 3162 3161 3160 3159 3157 3156 3155 3155 3154 3154 3153 3153 3152 3151 3149 3148 3147 3145 3143 3141 3139 3137 3134 3130 3128 3126 3125 3125 3124 3124 3125 3124 3124
3171 3174 3172 3166 3163 3163 3162 3164 3165 3165 3165 3166 3165 3166 3168 3161 3160 3160 3158 3155 3155 3151 3151 3150 3150 3151 3151 3150 3149 3148 3147 3146 3144 3143 3141 3139 3137 3135 3132 3129 3125 3122 3121 3121 3121 3120 3121 3120 3120
3167 3170 3167 3164 3160 3158 3160 3161 3163 3163 3163 3164 3162 3163 3165 3164 3157 3157 3157 3155 3153 3152 3147 3146 3147 3147 3147 3147 3146 3145 3144 3143 3141 3140 3138 3136 3133 3131 3128 3125 3123 3120 3117 3116 3116 3116 3116 3116 3115
3163 3166 3164 3161 3160 3158 3159 3158 3161 3161 3161 3161 3160 3161 3162 3161 3155 3155 3157 3156 3154 3152 3148 3143 3142 3143 3144 3143 3143 3142 3141 3139 3138 3137 3135 3132 3130 3128 3124 3121 3119 3117 3114 3113 3111 3111 3111 3110 3111
3161 3162 3157 3157 3158 3157 3157 3156 3157 3156 3157 3158 3158 3158 3157 3156 3153 3151 3151 3151 3151 3150 3148 3143 3139 3138 3140 3140 3140 3139 3138 3136 3135 3134 3132 3129 3127 3123 3120 3116 3115 3112 3111 3109 3108 3107 3106 3106 3106
3153 3152 3151 3155 3154 3154 3152 3152 3154 3154 3152 3153 3154 3154 3154 3153 3151 3149 3148 3147 3146 3144 3143 3140 3136 3135 3135 3136 3135 3136 3134 3132 3131 3130 3128 3127 3123 3120 3117 3114 3111 3109 3107 3105 3104 3103 3102 3101 3100
3148 3142 3148 3150 3150 3150 3149 3148 3149 3149 3147 3150 3149 3148 3148 3147 3146 3144 3143 3142 3141 3141 3139 3135 3130 3132 3132 3131 3131 3131 3129 3129 3128 3126 3124 3122 3119 3115 3113 3110 3107 3105 3102 3101 3099 3099 3098 3097 3096
3141 3140 3144 3144 3146 3145 3142 3142 3141 3142 3143 3146 3144 3143 3141 3140 3140 3138 3137 3136 3136 3135 3134 3130 3127 3128 3128 3127 3127 3126 3124 3126 3124 3122 3121 3118 3115 3112 3110 3108 3105 3101 3099 3096 3095 3094 3094 3094 3093
3130 3134 3138 3138 3139 3138 3137 3133 3134 3133 3138 3139 3138 3135 3134 3135 3134 3133 3131 3129 3127 3126 3126 3126 3122 3122 3124 3123 3122 3121 3121 3120 3120 3118 3116 3115 3111 3108 3106 3103 3100 3098 3095 3093 3092 3090 3089 3089 3089
3128 3129 3128 3129 3129 3130 3130 3126 3128 3128 3131 3129 3130 3128 3128 3128 3128 3126 3125 3123 3121 3120 3119 3118 3115 3116 3118 3118 3116 3117 3118 3115 3116 3114 3111 3108 3108 3104 3102 3098 3095 3092 3090 3089 3087 3086 3085 3085 3084
3121 3120 3119 3117 3121 3120 3124 3115 3115 3122 3124 3121 3121 3121 3121 3120 3121 3119 3118 3115 3113 3112 3112 3112 3111 3111 3113 3112 3112 3111 3112 3112 3110 3109 3106 3104 3102 3099 3098 3094 3091 3088 3086 3084 3082 3081 3082 3081 3081
3111 3114 3106 3104 3112 3113 3118 3098 3110 3116 3116 3114 3113 3113 3114 3113 3113 3112 3111 3108 3106 3105 3105 3106 3106 3105 3107 3107 3107 3106 3106 3107 3105 3103 3100 3098 3098 3095 3092 3089 3086 3084 3081 3079 3078 3078 3076 3077 3077
3100 3093 3092 3098 3104 3105 3106 3094 3103 3107 3107 3105 3106 3105 3105 3105 3104 3104 3102 3100 3099 3099 3099 3100 3101 3100 3101 3101 3101 3101 3100 3100 3100 3097 3095 3092 3091 3089 3086 3083 3081 3079 3076 3075 3073 3073 3072 3072 3073
3080 3086 3092 3089 3095 3096 3094 3090 3093 3096 3098 3098 3098 3097 3096 3095 3095 3095 3094 3092 3090 3093 3093 3094 3094 3094 3095 3095 3095 3095 3094 3094 3093 3092 3090 3088 3086 3083 3080 3078 3076 3073 3071 3069 3068 3067 3066 3067 3068
3082 3084 3081 3082 3087 3088 3087 3085 3085 3087 3089 3089 3088 3086 3086 3086 3088 3087 3086 3084 3082 3084 3085 3087 3087 3088 3089 3089 3089 3089 3088 3089 3088 3087 3084 3083 3080 3078 3074 3072 3070 3067 3065 3063 3061 3061 3060 3060 3062
3078 3078 3073 3078 3080 3082 3082 3079 3079 3080 3079 3079 3077 3077 3078 3078 3077 3077 3079 3078 3074 3077 3079 3081 3082 3083 3084 3084 3084 3083 3083 3082 3083 3081 3078 3077 3075 3072 3068 3066 3064 3061 3059 3057 3056 3055 3055 3055 3056
3067 3069 3072 3072 3076 3076 3078 3070 3069 3071 3068 3069 3069 3068 3067 3067 3067 3070 3071 3071 3068 3071 3074 3075 3077 3077 3078 3078 3077 3078 3078 3078 3078 3076 3073 3070 3070 3066 3063 3060 3058 3056 3055 3053 3052 3051 3051 3052 3053
3057 3066 3069 3072 3073 3070 3074 3055 3059 3061 3060 3060 3059 3059 3058 3058 3060 3063 3066 3061 3063 3066 3069 3071 3072 3073 3073 3073 3073 3074 3075 3075 3072 3071 3069 3067 3063 3060 3057 3055 3053 3053 3051 3050 3049 3048 3047 3048 3050
3043 3065 3065 3068 3068 3069 3066 3061 3051 3055 3053 3051 3050 3049 3049 3050 3052 3057 3060 3057 3059 3062 3063 3066 3067 3067 3068 3068 3069 3071 3071 3070 3068 3066 3064 3061 3059 3055 3053 3052 3051 3050 3049 3048 3047 3046 3045 3046 3048
3055 3059 3061 3062 3063 3055 3057 3058 3040 3048 3046 3044 3042 3042 3043 3044 3047 3052 3050 3053 3056 3058 3060 3061 3062 3063 3063 3064 3066 3066 3067 3064 3063 3062 3058 3057 3054 3052 3050 3050 3049 3050 3049 3049 3048 3048 3047 3048 3049
3044 3051 3052 3054 3048 3039 3050 3049 3037 3042 3041 3040 3039 3039 3039 3039 3041 3044 3048 3050 3052 3053 3055 3057 3058 3060 3061 3062 3063 3062 3062 3061 3059 3057 3054 3053 3051 3050 3050 3049 3049 3050 3049 3049 3049 3049 3049 3050 3050
3028 3034 3032 3035 3034 3037 3039 3034 3033 3036 3035 3035 3036 3037 3037 3037 3038 3041 3045 3047 3048 3050 3052 3054 3056 3057 3058 3059 3058 3058 3058 3056 3055 3054 3053 3051 3049 3049 3049 3049 3049 3050 3050 3050 3050 3049 3050 3050 3050
3017 3024 3026 3031 3031 3027 3023 3027 3031 3030 3030 3030 3033 3035 3038 3036 3038 3040 3043 3045 3047 3049 3051 3053 3054 3055 3056 3055 3055 3055 3053 3053 3052 3052 3051 3049 3048 3047 3049 3049 3049 3050 3050 3051 3051 3051 3050 3051 3052
3008 3018 3028 3026 3022 3021 3022 3023 3025 3027 3028 3029 3032 3034 3034 3034 3037 3040 3042 3044 3046 3048 3050 3051 3052 3053 3052 3052 3052 3051 3051 3051 3050 3050 3050 3049 3047 3048 3049 3049 3050 3050 3051 3051 3051 3051 3051 3052 3052
2998 3006 3015 3023 3022 3019 3022 3023 3023 3024 3026 3028 3031 3032 3032 3034 3036 3038 3041 3044 3045 3047 3048 3050 3051 3050 3050 3050 3049 3049 3049 3049 3048 3048 3048 3048 3048 3048 3049 3049 3051 3052 3052 3051 3051 3051 3051 3051 3053
2994 2999 3008 3008 3015 3017 3017 3020 3022 3023 3025 3027 3029 3029 3030 3033 3035 3039 3041 3042 3044 3046 3047 3049 3049 3049 3048 3048 3048 3048 3048 3049 3048 3048 3048 3048 3049 3049 3049 3050 3051 3052 3053 3052 3052 3052 3052 3053 3053
Wind_Speed
10 8 8 6 5 8 15 13 10 5 5 4 4 4 6 9 10 9 16 15 11 15 13 14 12 10 11 15 15 13 11 11 12 13 15 17 17 15 16 18 18 17 18 20 20 20 21 22 21
10 10 8 6 10 19 19 12 9 7 6 7 8 9 10 12 9 8 7 13 14 14 12 14 14 10 11 14 13 10 9 10 12 14 15 17 18 17 15 16 18 20 21 21 22 22 21 21 22
12 11 5 8 18 19 11 8 10 4 7 5 6 7 9 7 7 7 14 17 16 15 12 16 15 13 11 13 12 8 7 9 11 13 15 18 20 20 18 17 16 16 19 20 22 22 22 22 22
11 11 11 15 19 15 14 5 8 8 9 8 8 9 9 9 9 12 19 21 19 16 13 16 17 15 11 13 12 9 8 9 10 12 15 18 21 23 24 19 17 17 17 18 19 19 22 24 22
12 10 16 19 20 18 14 15 14 12 12 13 10 11 12 7 15 19 23 25 22 18 15 16 19 18 12 11 12 11 11 11 10 12 15 17 20 22 25 23 20 18 17 19 20 16 18 20 24
12 12 20 22 22 19 18 15 15 16 16 15 14 12 12 13 8 10 20 21 23 19 20 20 22 21 15 12 12 12 11 12 12 14 16 18 18 21 24 22 21 19 18 19 21 20 22 24 26
18 18 22 22 22 20 14 15 16 16 16 16 9 10 15 10 13 20 15 19 17 16 22 25 21 23 18 14 13 13 12 12 13 15 18 21 21 22 24 25 20 20 20 20 20 22 26 27 28
20 20 26 27 25 25 20 13 14 15 16 11 15 19 15 14 17 21 19 20 18 18 20 21 20 21 22 16 17 15 14 13 14 16 19 21 23 24 25 26 24 22 20 19 20 20 20 24 27
18 25 30 28 26 26 21 22 20 17 17 17 19 22 22 23 22 19 19 18 19 19 21 22 20 16 22 21 19 19 16 15 16 18 19 21 24 26 27 30 26 24 22 20 20 21 22 21 22
27 32 33 28 26 26 25 26 25 26 24 24 26 23 22 20 22 22 23 25 21 22 22 23 23 22 19 25 23 20 20 19 18 18 20 21 25 27 27 29 27 24 22 20 21 21 20 20 21
32 41 33 32 30 31 36 35 32 35 35 29 29 26 24 25 24 25 25 25 24 21 22 27 29 24 24 25 27 21 24 23 20 19 21 25 27 30 30 31 30 24 23 21 23 20 19 21 20
37 40 38 39 38 39 43 42 41 40 37 31 31 29 26 26 26 25 25 25 23 23 23 28 30 28 27 27 30 28 26 25 23 22 23 26 28 32 29 29 27 29 24 25 23 20 21 19 21
46 46 44 46 45 44 41 45 44 43 36 35 33 33 30 29 28 28 26 26 25 26 24 22 26 29 26 26 30 32 28 28 25 26 28 27 29 33 31 31 29 27 25 23 23 21 21 19 18
48 48 48 47 47 44 45 48 42 39 37 39 35 37 35 31 30 27 26 26 25 26 27 27 28 26 27 27 31 32 31 30 27 28 31 32 30 33 30 30 29 27 26 23 23 21 21 20 19
48 52 54 53 46 45 39 48 51 43 39 41 39 38 34 30 28 27 26 27 27 27 30 32 27 29 27 28 30 32 35 31 29 30 31 32 34 33 30 28 27 26 26 22 22 22 21 21 19
45 46 52 55 49 46 42 56 45 38 38 38 31 32 37 32 29 30 28 31 35 29 31 30 30 32 29 30 32 33 35 35 33 33 34 34 33 32 31 28 26 25 26 24 22 23 21 21 19
41 50 55 48 42 44 45 54 47 37 37 39 40 37 32 32 32 32 33 34 35 30 29 29 31 34 26 27 28 31 34 37 36 36 35 35 34 34 32 28 25 24 24 25 26 24 22 21 18
51 48 47 50 44 40 44 50 46 40 36 37 36 38 39 39 38 35 33 31 34 32 30 31 34 30 28 27 29 32 34 35 39 37 35 34 33 33 32 28 26 24 25 25 25 25 25 23 21
44 37 42 45 40 34 38 42 46 37 37 37 40 41 40 40 34 33 31 29 30 31 33 28 29 30 29 29 31 29 29 32 37 36 36 32 32 33 29 27 26 25 25 24 25 25 24 23 22
43 43 46 42 36 33 35 37 36 37 40 40 42 39 37 38 37 32 27 24 29 30 25 21 21 25 27 32 27 27 27 32 35 35 35 32 32 30 26 26 26 26 24 19 15 13 14 14 15
45 44 43 41 32 30 29 41 41 38 40 37 38 38 38 37 33 28 26 24 28 27 23 21 22 27 32 33 30 25 26 29 30 30 31 32 28 25 26 26 23 19 17 14 14 14 15 16 17
48 42 37 31 29 32 29 33 37 34 35 34 33 32 32 29 26 25 20 29 23 24 26 24 27 29 32 30 25 23 22 25 27 25 27 27 26 24 24 17 14 13 10 11 12 14 15 16 15
54 34 33 31 33 32 32 29 33 29 32 32 31 29 29 28 25 21 19 24 22 22 22 25 24 24 24 24 20 17 19 23 24 26 24 22 21 20 18 12 9 7 6 5 3 2 4 8 10
36 34 32 29 30 27 31 31 43 31 29 25 21 18 20 20 20 19 26 23 21 22 23 24 26 19 15 15 15 17 18 20 23 19 19 18 17 13 8 7 6 2 1 4 4 4 5 8 10
38 34 22 21 23 21 26 27 36 24 20 22 22 15 8 10 19 26 22 20 21 22 21 20 14 11 12 13 14 17 18 17 15 15 15 15 12 7 4 5 3 2 3 3 2 2 1 6 9
46 47 27 26 11 18 29 23 27 17 15 14 11 12 9 11 18 17 15 13 12 11 12 10 8 11 11 12 14 15 13 13 12 10 11 17 7 5 3 3 4 2 2 2 1 2 1 5 9
55 50 51 28 29 15 21 15 16 16 13 13 10 11 13 13 15 14 14 13 11 12 11 8 9 8 10 10 11 11 9 8 10 9 12 10 4 3 3 6 5 2 1 1 1 1 3 6 7
54 48 42 43 23 14 17 11 16 6 8 8 14 11 14 14 17 18 14 11 13 13 10 8 8 7 6 9 9 7 7 6 9 11 9 5 2 3 5 5 4 3 1 2 2 4 4 6 6
54 46 48 38 30 14 12 15 4 7 10 6 13 13 13 16 20 17 14 13 13 11 9 7 7 5 7 7 4 4 5 6 7 5 3 3 3 5 7 6 6 4 2 2 3 3 4 5 6
48 45 50 31 29 30 16 9 6 3 6 8 4 12 16 19 18 14 12 14 12 11 6 7 5 5 4 3 3 1 4 4 2 3 2 4 5 6 8 5 6 4 3 4 3 2 3 5 4
Wind_Direction
222 222 216 199 213 235 245 236 232 228 265 247 278 302 301 307 316 327 307 313 307 320 319 320 313 311 336 348 343 341 350 358 2 3 359 354 346 331 315 301 287 273 268 266 262 255 253 257 253
218 215 201 166 239 231 247 216 206 222 246 276 286 282 299 305 297 294 297 303 307 310 306 321 311 294 325 337 331 327 338 346 354 359 358 355 349 339 324 308 296 286 276 268 265 263 257 251 255
213 209 198 250 237 258 294 208 245 221 282 285 306 287 289 310 303 286 275 297 297 298 295 315 305 293 307 326 321 302 318 336 345 352 355 354 350 348 338 320 306 293 287 275 266 265 265 263 255
213 212 226 234 244 242 259 273 234 270 273 285 276 310 299 274 289 265 294 308 298 291 290 309 306 291 293 320 313 295 299 320 333 344 347 349 351 347 341 327 306 291 284 281 276 272 271 269 261
208 216 246 248 250 254 260 255 263 270 271 277 275 297 305 263 285 293 300 302 290 275 282 293 298 290 286 309 308 303 302 304 320 334 337 339 347 347 342 328 315 293 279 274 272 276 274 271 272
217 226 248 250 251 253 252 258 263 263 267 275 270 282 310 291 298 307 313 299 288 274 278 277 286 291 281 294 305 301 305 303 306 321 329 335 334 342 343 332 318 308 292 274 264 255 255 258 264
224 232 249 258 263 261 258 264 262 262 264 275 263 255 300 295 284 302 307 305 283 256 274 277 277 285 276 278 291 287 295 308 310 314 322 328 331 333 339 336 323 316 299 288 280 265 254 253 256
224 240 252 255 256 261 263 271 266 257 261 267 279 281 282 285 299 299 309 300 292 276 255 274 280 277 273 269 278 279 283 298 310 312 316 323 327 326 333 333 324 317 305 290 286 279 269 259 256
229 243 247 250 254 262 261 268 272 255 261 265 276 281 283 292 293 302 308 301 289 270 256 251 272 261 273 263 271 274 281 290 297 304 314 321 325 325 328 331 328 318 306 292 285 283 278 270 263
229 238 246 249 253 261 264 267 265 271 267 276 280 285 284 285 291 293 297 298 288 273 259 251 271 271 261 265 267 273 276 277 284 298 311 318 325 324 326 324 323 315 307 295 289 285 280 279 272
234 242 246 249 256 265 273 272 274 269 268 274 281 280 281 286 283 292 294 296 286 262 266 265 264 265 268 262 263 269 270 277 283 296 309 316 324 324 324 324 322 315 307 290 286 282 279 277 274
239 247 251 259 264 272 269 271 275 266 266 271 278 280 283 287 291 291 290 289 281 266 262 265 269 261 268 263 261 266 274 281 284 294 303 310 317 319 319 320 316 311 307 295 288 285 281 279 273
244 250 256 261 264 266 270 268 269 263 264 269 274 277 284 287 286 285 289 289 279 260 253 250 269 268 264 265 259 263 273 279 286 292 300 306 312 315 316 318 316 309 301 290 282 276 281 277 274
250 257 259 261 264 263 263 267 269 265 265 269 273 278 278 278 279 279 286 291 274 260 254 259 269 264 268 266 260 263 268 276 286 290 295 304 306 310 312 315 314 312 303 293 279 278 277 271 278
252 257 259 257 259 259 266 265 260 264 266 270 274 274 278 271 272 276 282 289 276 267 255 252 264 269 269 261 261 265 265 271 283 286 291 297 301 307 309 310 308 307 300 288 281 274 276 267 274
248 250 256 253 255 257 256 263 267 267 268 269 269 267 276 268 269 274 276 289 288 266 251 248 258 268 269 263 261 267 264 269 278 284 290 293 298 305 307 306 303 302 298 290 285 282 272 265 262
241 242 244 258 254 256 251 259 268 272 273 268 267 271 267 264 266 271 277 283 281 260 250 250 253 258 260 259 266 266 262 266 272 279 287 290 301 304 305 304 301 298 293 287 281 276 266 261 250
230 239 249 256 255 254 257 258 267 269 267 270 270 266 269 266 273 276 276 276 277 252 247 245 252 254 256 259 261 267 265 266 267 277 282 290 299 300 302 302 300 296 292 286 279 273 262 256 241
240 245 250 253 258 253 258 264 266 269 268 269 268 264 266 269 275 273 274 275 264 243 245 253 258 247 250 259 264 268 269 269 266 273 282 290 296 297 299 299 299 296 294 286 279 273 265 244 236
238 244 249 255 257 263 267 268 266 266 267 264 266 268 268 270 269 269 265 265 252 242 240 245 245 249 252 256 260 259 261 265 265 276 286 297 296 298 299 299 300 297 289 285 272 266 252 247 236
235 237 246 252 262 264 267 269 268 268 269 273 272 270 268 264 265 260 259 254 246 247 236 240 244 249 253 255 257 255 259 263 274 281 289 292 300 301 301 303 298 290 283 280 278 271 261 250 241
237 235 246 255 261 260 258 269 267 271 274 273 272 265 263 262 256 258 256 248 237 227 234 246 247 252 258 257 251 251 260 268 279 291 287 299 303 306 305 303 296 289 294 287 280 273 260 247 236
236 235 241 245 253 262 257 261 272 274 276 277 277 271 264 257 248 243 236 236 218 227 233 238 249 262 260 253 250 254 265 277 282 289 292 297 308 305 303 303 296 296 287 293 298 306 209 199 190
233 234 239 243 249 250 249 257 271 274 280 281 285 266 263 252 240 228 222 225 233 244 250 252 261 264 240 245 254 266 278 278 290 293 298 313 314 308 300 291 290 253 165 125 95 89 131 159 175
219 219 225 230 231 245 250 249 260 276 268 277 282 265 239 207 206 222 226 243 255 256 251 252 245 235 249 258 267 277 280 282 279 293 305 318 316 295 296 283 214 179 153 131 89 44 178 193 189
213 207 209 218 217 236 232 244 258 268 277 270 272 221 222 226 207 207 220 227 229 228 225 217 239 245 253 268 272 278 279 281 290 306 310 314 314 285 300 222 183 151 217 272 338 298 189 185 181
211 211 214 240 221 251 245 219 256 276 282 251 215 205 210 223 198 192 207 213 213 217 212 221 229 253 265 268 271 274 277 288 311 307 312 298 298 279 194 174 162 190 180 221 270 145 147 165 172
213 213 211 223 239 220 236 252 262 242 282 203 191 195 201 219 202 210 202 203 214 209 210 221 249 268 268 270 272 285 287 314 313 306 305 276 242 195 160 170 168 164 167 254 149 154 161 180 196
205 210 212 215 224 229 245 257 249 252 217 223 208 201 223 195 204 198 195 204 208 210 211 247 259 258 274 265 271 292 321 319 325 323 300 226 185 157 152 148 135 126 119 119 122 148 170 189 138
204 205 202 211 209 230 211 231 193 100 207 220 186 200 196 198 193 188 211 203 204 216 224 239 253 260 274 264 205 334 313 315 317 307 261 201 186 160 144 144 123 119 127 124 92 95 136 166 168